Cloud_Cover
13 75 5 66 85 98 57 100 42 35 52 66 50 34 48 100 81 95 100 100 100 59 18 92 96 5 1 0 35 8 73 100 100 100 100 100 100 100 100 100 100 100 100
0 77 29 65 48 16 8 41 69 90 55 100 92 100 96 100 100 80 100 100 100 77 5 25 7 5 3 0 0 26 5 100 100 100 100 100 100 100 100 100 100 100 100
3 0 12 99 0 35 70 89 94 27 68 93 99 98 100 100 97 100 100 92 70 96 18 5 6 3 1 2 0 2 10 100 100 83 100 100 100 100 100 100 100 100 100
0 0 89 50 37 100 99 92 39 28 31 61 40 2 99 97 35 48 37 20 89 92 87 18 2 0 0 0 14 22 0 100 100 100 100 100 100 100 74 100 100 100 100
0 0 67 28 0 100 18 5 7 92 98 94 34 13 80 80 23 0 99 90 18 92 75 100 82 27 0 0 0 0 3 50 98 96 75 100 100 100 98 86 100 82 96
36 4 96 0 0 86 9 11 40 85 100 67 3 81 0 11 0 0 4 23 16 0 43 80 99 40 0 0 0 0 0 0 99 100 16 100 100 87 12 100 98 89 40
52 4 44 40 31 3 3 25 6 93 7 5 4 26 7 40 48 0 0 0 3 4 22 46 0 21 18 0 0 0 0 0 2 83 99 100 80 90 14 29 78 100 100
0 65 1 1 0 4 96 5 5 9 14 3 5 2 5 4 21 0 3 5 6 5 20 6 11 2 0 79 60 0 0 0 0 61 95 100 100 100 70 95 100 100 100
0 0 0 0 0 16 0 18 41 27 5 19 0 4 0 0 1 75 7 51 19 7 26 2 4 17 5 64 97 34 0 0 0 0 67 100 100 100 100 100 100 97 85
0 0 0 0 0 42 0 10 37 8 5 0 0 0 2 0 0 0 12 84 19 28 22 5 54 100 32 55 100 3 0 0 0 11 100 100 100 100 100 100 100 100 100
0 0 0 0 0 2 13 5 45 5 5 0 0 0 5 0 0 5 5 2 16 43 72 5 19 31 49 98 100 52 0 0 0 100 100 100 100 100 100 100 100 100 100
4 0 0 0 4 0 6 5 60 61 8 0 0 0 3 0 2 38 5 87 5 11 28 12 24 20 59 28 20 26 0 0 0 67 100 100 100 100 100 100 100 100 100
13 3 0 1 0 0 7 5 22 6 13 3 0 5 5 0 5 5 5 5 5 52 61 67 95 40 38 82 89 12 6 0 0 61 100 100 100 100 100 100 100 100 100
5 0 0 0 0 0 3 10 20 16 2 40 5 5 3 0 5 5 5 5 15 58 5 6 79 62 97 100 90 17 99 0 0 11 100 100 100 100 100 100 100 100 100
2 3 0 0 0 0 12 13 42 0 38 10 4 5 0 2 5 5 5 5 8 85 2 62 39 51 91 100 100 17 20 4 0 6 100 100 100 100 100 100 100 100 100
1 30 0 0 0 0 15 15 36 4 5 26 61 4 0 0 5 5 0 0 5 74 4 5 92 44 42 100 89 96 94 2 3 0 99 100 100 100 100 100 100 100 100
4 0 0 0 0 0 10 32 56 5 12 41 56 5 0 0 5 5 0 0 5 5 4 5 100 25 8 41 100 100 100 100 18 5 15 100 100 100 100 100 100 100 100
0 0 0 0 0 0 16 24 64 14 5 91 99 5 4 5 5 5 0 0 5 5 0 8 71 100 100 4 84 46 100 100 93 30 11 98 100 100 100 100 100 100 100
0 2 29 13 0 0 3 22 83 52 5 67 18 7 55 5 5 5 0 35 5 5 6 63 100 100 100 55 9 51 99 100 96 55 79 6 100 100 100 100 100 100 100
2 0 0 65 2 22 9 8 88 64 8 16 98 5 5 15 31 5 0 4 5 4 6 18 91 98 100 39 27 40 96 100 100 88 76 99 46 100 100 100 100 100 100
5 0 0 51 4 15 11 5 46 72 5 6 96 5 2 26 43 5 5 0 5 5 3 29 33 73 51 98 94 99 71 78 100 100 100 100 100 100 100 100 100 100 100
38 5 3 4 5 5 18 18 5 37 5 5 42 32 5 5 58 5 4 0 5 5 20 20 96 36 100 100 99 100 72 83 100 100 100 97 100 100 100 100 100 100 100
8 10 0 0 0 5 4 2 56 20 39 5 30 98 5 5 5 5 0 0 29 5 0 42 66 57 100 100 78 100 92 96 100 100 100 100 100 94 100 95 100 100 100
43 2 0 0 0 2 5 0 31 99 5 90 100 100 13 5 5 4 0 3 3 5 0 0 33 34 32 94 100 100 90 69 100 100 100 100 100 100 98 98 15 95 100
5 0 1 0 0 4 9 0 5 99 12 5 28 100 29 53 6 5 0 0 24 9 10 5 0 0 22 40 98 100 100 100 100 100 100 100 100 100 100 100 70 10 5
0 0 8 7 8 4 13 0 29 61 93 52 29 16 79 11 5 5 5 3 31 17 5 13 41 46 100 100 25 100 100 100 62 100 76 96 100 100 100 100 91 99 24